User: anonymous   Login
Location: Unspecified
(0.0000°N, 0.0000°E)
Time: 03:23:34
(UTC+00:00)
Language:

CHANGE E 5-T1 - Orbit

View from above orbital plane
View from above orbital plane
View from above satellite
View from above satellite

Ground track
Ground track

The orbit is defined by the following mean orbital elements,

1 40283U 14065A   14296.61771037 -.00016976 -40384-4  00000+0 0  9990
2 40283 030.4737 296.6387 9755090 146.2479 349.5224 00.09145111    03
Epoch (UTC): 23 October 2014 14:49:30
Eccentricity: 0.9755090
inclination: 30.4737°
perigee height: -1282 km
apogee height: 404724 km
right ascension of ascending node: 296.6387°
argument of perigee: 146.2479°
revolutions per day: 0.09145111
mean anomaly at epoch: 349.5224°

The dashed part of the orbit path shows where the satellite is in the earth's shadow,  

DLR